Погода в Сидоровском

Россия / Костромская область     57°27′03″N   41°13′05″E
темп.,
°C
ветер,
м/с
пор.,
м/с
влажн.,
%
обл.,
%
осадки,
мм/ч
давл.,
гПа
погр.,
м
18 января, пн
пн1800:00−23з229927 0.0 101920
03:00−24з129919 0.0 101920
06:00−23зюз229823 0.0 101920
09:00−22юз239742 0.0 101928
12:00−18юз239696 0.0 1020117
15:00−18юз229675 0.0 101928
18:00−20юз229853 0.0 101920
21:00−20ююз229864 0.0 102020
19 января, вт
вт1900:00−19зюз229799 0.1 101926
03:00−20ююз0199100 0.1 101920
06:00−19ююз2298100 0.0 101822
09:00−18юз1297100 0.1 101947
12:00−16зюз1193100 0.1 1018168
15:00−15з1195100 0.2 101799
18:00−17сз119794 0.1 101720
21:00−17сз119795 0.2 101720
20 января, ср
ср2000:00−17сз129786 0.1 101620
03:00−17зсз229791 0.1 101720
06:00−16зсз229792 0.1 101736
09:00−16зсз249690 0.2 101888
12:00−14зсз349682 0.1 1018182
15:00−14з349684 0.1 1018102
18:00−17з339891 0.0 101946
21:00−18з339885 0.1 102030
21 января, чт
чт2100:00−18зюз239860 0.0 102023
03:00−19юз339860 0.0 102028
06:00−18ю349785 0.0 101871
09:00−16ю5109393 0.0 1016238
12:00−13ю81487100 0.0 1011432
15:00−10ююз81494100 2.1 1006753
18:00−8юз71495100 3.1 1003747
21:00−5юз81594100 6.9 1000622
22 января, пт
пт2200:00+1зюз71599100 1.3 999568
03:00+1сз71399100 2.8 1000587
06:00−8ссз4794100 0.4 1004260
09:00−12ссв2494100 0.4 100893
12:00−10всв2390100 0.0 1009241
15:00−10в2493100 0.1 1010255
18:00−11в479499 0.1 1012225
21:00−13в479499 0.4 1013259